Погода Большеречье

Погода Большеречье : погода сейчас, прогноз погоды и архив. Всё, что Вы хотите узнать о погоде Большеречье!

Хотите узнать прогноз погоды Большеречье? Тогда Вам сюда: Погода Большеречье

Поиск расширенной информации на нашем сайте:

Другие новости

Новости СМИ2

Главная страница сайта

Новости сайта

02.10.2013

Напоминаем, что на нашем новом сайте вы можете получить высокодетализированные прогнозы погоды по пунктам России, СНГ и мира (включающие важные для авиации метеовеличины, такие как направление и скорость ветра, видимость, явления погоды, количество и форма облачности, нижняя и верхняя граница облачности), а также ознакомиться с разнообразными материалами по авиационной метеорологии и подборкой полезных ссылок на эту тему.

Сайт Метеоцентр.Азия посвящён разработке технологий оптимизации авиаметеорологического обслуживания, включая проектирование и перспективное создание нескольких автоматизированных авиаметеорологических систем:
- система выпуска высокодетальных прогностических карт явлений погоды для нижнего воздушного пространства по России и ближнему зарубежью;
- система верификации прогнозов TAF (выпускаемых синоптиками официальных АМСГ РФ и ближнего зарубежья) и AUTOTAF (выпускаемых сайтом Метеоцентр.Азия) - выявление ошибок, онлайн-сопоставление с фактической погодой METAR, автоматическое внесение коррективов в прогнозы при резком отклонении фактической погоды от прогноза, подсчёт оправдываемости прогнозов по элементам и в целом;
- система обработки, анализа и отображения авиаметеорологической информации для применения провайдерами метеорологической информации.

Рекомендуем: Дабур чаванпраш купить.

Погода Большеречье - сегодня

Время (UTC), дата Ветер
(°,м/с) 
Видим.   Явления Облачность Т
(°С)
Тd
(°С)
f(%) Тe
(°С)
Pmin
(гПа)
dP
(гПа)
Po
(мм)
O2
(г/м3)
Тmin Tmax R s Состояние
почвы
06 19.01.17 тихо ()   20000 м  [диам. изморози 8 мм]  9/0 средняя, верхняя 
[Ac trans|Cs]
-17.9 -20.4 81 -18  1033.1  -0.2  767  332           
09 19.01.17 170 (Ю) 20000 м  [диам. изморози 7 мм]  10/0 средняя 
[Ac As]
-17 -19.5 81 -17  1032  -1  766  331           
12 19.01.17 140 (ЮВ) 10 км  [диам. изморози 0 мм]  10/0 верхняя 
[Cs]
-19.3 -21.9 80 -20  1031.1  -1  765  334           
15 19.01.17 140 (ЮВ) 10 км    8/0 верхняя 
[Cs]
-20.7 -23.5 78 -21  1029.5  -1.7  764  335    -15.9       
18 19.01.17 160 (Ю) 10 км    3/0 верхняя 
[Cs]
-21.6 -24.4 78 -26  1027.5  -2  763  335           
21 19.01.17 150 (ЮВ) 4000 м  слаб. снег  10/0 средняя 
[As op]
-22.8 -25.7 77 -26  1025.2  -2.3  761  336           
00 20.01.17 160 (Ю) 4000 м  слаб. снег  10/0 средняя 
[As trans]
-23.5 -26.5 76 -28  1023.5  -1.6  760  337           
03 20.01.17 130 (ЮВ) 20000 м  {снег}  10/0 средняя 
[As trans]
-23.2 -26.2 76 -24  1021.6  -1.9  758  336  -24.9    0.0  63  неравномерный
сухой снег
100% 
06 20.01.17 190 (Ю) 20000 м  {снег}  3/0 верхняя 
[Cs]
-20 -22.8 78 -24  1020.6  -0.9  758  331           
09 20.01.17 160 (Ю) 20000 м  в посл. час снег  6/0 средняя 
[Ac As]
-17.8 -20.3 81 -18  1018.1  -2.4  756  327           
12 20.01.17 150 (ЮВ) 20000 м  {снег}  10/0 средняя 
[As trans]
-18.8 -21.4 80 -21  1016.3  -1.9  755  328           
15 20.01.17 170 (Ю) 10 км  {снег}  ясно 
-18 -20.5 81 -23  1014.5  -1.8  753  326    -17.5  0.0     
18 20.01.17 170 (Ю) 10 км  позёмок{снег}  ясно 
-18.7 -21.3 80 -24  1012.7  -1.8  752  327           
21 20.01.17 170 (Ю) 10 км    ясно 
-18.9 -21.5 80 -24  1011.3  -1.4  751  327           
00 21.01.17 170 (Ю) 10 км  позёмок  ясно 
-18.3 -21 79 -24  1009.4  -1.8  749  325           
03 21.01.17 180 (Ю) 4000 м  слаб. снег  10/0 средняя 
[As op]
-16.2 -18.9 80 -22  1006.9  -2.4  748  322  -19.6    0.0  62  неравномерный
сухой снег
100% 
06 21.01.17 180 (Ю) 7-11{11}  4000 м  слаб. снег  10/0 средняя, верхняя 
[Ac As|Ci fib]
-14.4 -17.6 77 -21  1005.1  -1.8  746  319           
09 21.01.17 190 (Ю) 7-12{14}  4000 м  слаб. снег  10/0 средняя 
[As trans]
-13 -16.6 74 -20  1003.4  -1.6  745  317           
12 21.01.17 200 (Ю) 7-11{12}  20000 м  позёмок{снег}  10/3 600 м кучево-дожд., средняя 
[Cb calv|Ac As]
-12 -15.4 76 -18  1002.8  -0.6  745  315           
15 21.01.17 200 (Ю) 7-11{12}  10 км  позёмок  3/3 600 м 
[Cu hum]
-13 -16.5 75 -20  1004.3  1.4  746  317    -11.9  0.0     
18 21.01.17 190 (Ю) 6{12}  10 км  позёмок  ясно 
-14.7 -17.9 77 -21  1005.3  0.9  746  319           
21 21.01.17 190 (Ю) 6-10{12}  10 км  позёмок  ясно 
-15.4 -18.5 77 -22  1006.4  1.1  747  321           
00 22.01.17 190 (Ю) 6{12}  10 км  позёмок  10/0 средняя 
[Ac As]
-13.1 -16.5 76 -19  1006.8  0.4  748  318           
03 22.01.17 190 (Ю) 6{12}  10 км  слаб. снег  10/0 средняя 
[As op]
-11.7 -14.5 80 -17  1007.7  0.7  748  316  -15.5    0.0  59  неравномерный
сухой снег
100% 
06 22.01.17 190 (Ю) 6{11}  10 км  слаб. снег  10/0 средняя 
[Ac As]
-10.4 -13.9 75 -16  1007.6  0.2  748  315           
Время (UTC), дата Ветер
(°,м/с) 
Видим.   Явления Облачность Т
(°С)
Тd
(°С)
f(%) Тe
(°С)
Pmin
(гПа)
dP
(гПа)
Po
(мм)
O2
(г/м3)
Тmin Tmax R s Состояние
почвы

Для получения пояснительной информации подведите курсор к названию столбца.

ПОГОДА Большеречье - архив

Всё, что Вы хотите узнать о погоде Большеречье - удобно и подробно!

Выберите нужную дату (начиная с 1 января 2015* года) и нажмите кнопку "Найти".
Будут отображены архивные сводки погоды по пункту Большеречье, начиная с указанной даты.


Отображать данные в формате CSV (для использования в таблицах Excel)


Внимание! Наш архив погоды предназначен исключительно для личного некоммерческого использования в познавательных целях. Если Вам необходимы официальные справки о состоянии погоды (для производственных, юридических, коммерческих и т.п. целей), обращайтесь в органы Росгидромета.

*Примечание: данная дата относится к архиву по метеостанциям СССР (Россия, СНГ, Балтия).
Архив по метеостанциям Зарубежной Европы и Азии (кроме Китая) хранится 10 дней, по другим регионам земного шара (Китай, Африка, Америка, Австралия, Океания) - 1 день.

Большеречье - район местоположения метеостанции


Название, широта, долгота, высота метеостанции:
Большеречье 56.1°ш. 74.6°д. 77 м над ур. моря [Российская Федерация]

Дополнительная информация

В oтличие oт бoльшинства пoгoдных сайтoв мы публикуем пoдрoбную метеoинфoрмацию в детальнoм прoфессиoнальнoм фoрмате.

Характеристики температуры и влажнoсти вoздуха измеряются на высoте 2 м в тени вдали oт зданий и деревьев.
Скoрoсть ветра измеряется на высoте 10 м (на урoвне рoста челoвека скoрoсть ветра ниже в 1.5-2 раза). Если метеoстанция нахoдится в гoрoде или в лесу, тo скoрoсть ветра занижена на 2-4 м/с пo сравнению с oткрытым местoм. Скoрoсть ветра над акватoриями крупных рек и oзёр, а также на вершинах хoлмoв на 2-5 м/с выше, чем в oбычных услoвиях.
Атмoсфернoе давление в разных тoчках местнoсти мoжет значительнo oтличаться oт давления на метеoстанции, в зависимoсти oт услoвий рельефа (при пoдъёме на 10 м давление пoнижается примернo на 1 мм рт.ст.).